Location: Linz
(48.3300°N, 14.3000°E)
Time: 03:10:14
(UTC+01:00)

Vanguard 2 - All Passes

Search period start: 22 November 2017 00:00
Search period end: 02 December 2017 00:00
Orbit: 553 x 2940 km, 32.9° (Epoch: 21 November)

Date Brightness Start Highest point End Pass type
(mag) Time Alt. Az. Time Alt. Az. Time Alt. Az.
22 Nov - 00:23:03 10° SW 00:30:28 34° S 00:41:42 10° ESE visible
22 Nov - 02:30:34 10° WSW 02:39:42 32° SSW 02:52:34 10° SE visible
22 Nov - 04:40:51 10° WSW 04:49:24 19° SSW 04:59:37 10° S visible
22 Nov - 22:34:53 10° SSW 22:40:10 23° SSE 22:47:35 10° ESE night (unlit)
23 Nov - 00:40:51 10° WSW 00:48:17 33° S 00:59:31 10° ESE visible
23 Nov - 02:48:48 10° WSW 02:57:35 28° SSW 03:09:37 10° SSE visible
23 Nov - 05:00:45 10° WSW 05:07:09 14° SW 05:14:23 10° S visible
23 Nov - 22:52:18 10° SW 22:57:49 25° SSE 23:05:46 10° ESE night (unlit)
24 Nov - 00:58:45 10° WSW 01:06:09 32° S 01:17:10 10° SE visible
24 Nov - 03:07:15 10° WSW 03:15:27 23° SSW 03:26:17 10° SSE visible
24 Nov - 21:05:59 10° S 21:08:18 12° SSE 21:10:58 10° SE night (unlit)
24 Nov - 23:09:53 10° SW 23:15:32 27° SSE 23:23:47 10° ESE night (unlit)
25 Nov - 01:16:46 10° WSW 01:24:02 29° S 01:34:37 10° SE visible
25 Nov - 03:26:07 10° WSW 03:33:19 19° SSW 03:42:22 10° SSE visible
25 Nov - 21:22:33 10° S 21:25:49 15° SSE 21:29:54 10° ESE night (unlit)
25 Nov - 23:27:37 10° SW 23:33:18 27° S 23:41:40 10° ESE night (unlit)
26 Nov - 01:34:57 10° WSW 01:41:55 25° SSW 01:51:47 10° SE visible
26 Nov - 03:45:48 10° SW 03:51:10 14° SSW 03:57:25 10° S visible
26 Nov - 21:39:40 10° SSW 21:43:27 18° SSE 21:48:18 10° ESE night (unlit)
26 Nov - 23:45:28 10° SW 23:51:08 26° S 23:59:23 10° SE night (unlit)
27 Nov - 01:53:21 10° WSW 01:59:50 21° SSW 02:08:34 10° SSE visible
27 Nov - 21:57:06 10° SSW 22:01:06 20° SSE 22:06:28 10° ESE night (unlit)
28 Nov - 00:03:27 10° SW 00:08:59 24° S 00:16:54 10° SE night (unlit)
28 Nov - 02:12:10 10° SW 02:17:44 17° SSW 02:24:47 10° SSE visible
28 Nov - 22:14:44 10° SW 22:18:52 21° S 22:24:24 10° SE night (unlit)
29 Nov - 00:21:36 10° SW 00:26:53 21° S 00:34:08 10° SE night (unlit)
29 Nov - 02:31:59 10° SW 02:35:37 12° SSW 02:39:49 10° S visible
29 Nov - 20:27:48 10° S 20:29:22 11° SSE 20:31:04 10° SE night (unlit)
29 Nov - 22:32:32 10° SW 22:36:38 20° S 22:42:10 10° SE night (unlit)
30 Nov - 00:40:01 10° SW 00:44:46 18° SSW 00:50:59 10° SSE night (unlit)
30 Nov - 20:44:44 10° SSW 20:47:01 13° SSE 20:49:40 10° SE night (unlit)
30 Nov - 22:50:30 10° SW 22:54:28 19° S 22:59:43 10° SE night (unlit)
01 Dec - 00:58:58 10° SW 01:02:40 14° SSW 01:07:11 10° S night (unlit)
01 Dec - 21:02:09 10° SSW 21:04:44 15° SSE 21:07:48 10° SE night (unlit)
01 Dec - 23:08:40 10° SW 23:12:19 17° S 23:16:59 10° SSE night (unlit)
